Location: Nag� el-Kheirall�b
(24.1333°N, 32.8667°E)
Time: 17:07:14
(UTC+00:00)

Daily predictions for brighter satellites

Satellite Brightness Start Highest point End
(mag) Time Altitude Azimuth Time Altitude Azimuth Time Altitude Azimuth
SJ 16-02 1.3 15:15:01 10° N 15:19:21 62° ENE 15:23:40 10° SSE
CZ-2D R/B 4.2 15:16:52 10° SE 15:20:06 26° ENE 15:23:19 10° NNE
Cosmos 1833 Rocket 2.7 15:14:48 10° SSW 15:20:22 76° ESE 15:25:59 10° NNE
OAO 1 Rocket 4.5 15:15:17 10° WNW 15:20:36 84° NNE 15:25:54 10° ESE
Okean 3 Rocket 4.4 15:17:57 10° NNW 15:22:20 58° W 15:26:41 10° S
Cosmos 1500 Rocket 4.3 15:19:31 10° NNE 15:23:27 31° E 15:27:20 10° SE
Sakura Rocket 3.6 15:18:15 10° WNW 15:24:16 58° N 15:28:40 10° E
CZ-4B R/B 4.2 15:21:17 10° ESE 15:25:37 24° ENE 15:29:55 10° NNE
Cosmos 1634 Rocket 4.3 15:23:25 10° SSE 15:29:24 48° E 15:35:25 10° NNE
ARGOS 4.3 15:26:24 10° ESE 15:30:19 21° ENE 15:34:13 10° NNE
PSLV R/B 3.9 15:28:17 10° SSE 15:31:48 44° ENE 15:35:18 10° N
ATLAS 3B R/B 4.3 15:25:32 10° NW 15:32:31 45° WSW 15:39:38 10° S
H-2A R/B 2.5 15:27:48 10° SE 15:32:43 39° ENE 15:37:32 10° N
SMAP 3.1 15:28:18 10° SSE 15:32:57 89° W 15:37:36 10° NNW
Cosmos 1939 Rocket 3.3 15:30:46 10° S 15:34:51 69° WSW 15:38:58 10° NNW
COSMOS 2455 3.0 15:29:20 10° S 15:35:10 55° ESE 15:41:02 10° NNE
MOS 1-B Rocket 4.2 15:31:10 10° NNE 15:37:15 86° ESE 15:44:19 10° SSW
EXPRESS MD2 2.5 15:36:13 10° NW 15:38:28 73° SW 15:41:48 10° SE
H-2A R/B 4.0 15:39:46 11° E 15:40:36 11° E 15:42:01 10° ESE
DEBRIS 1.9 15:40:34 10° SSW 15:42:30 47° SE 15:44:15 15° ENE
GPS 2-04 Rocket1 4.4 15:40:09 10° WNW 15:43:30 24° NNW 15:46:40 11° NE
Sich 1 4.1 15:42:13 10° NNE 15:45:37 23° E 15:49:03 10° SE
Myojo/LAPS 3.6 15:44:10 10° WNW 15:46:37 48° NNE 15:50:54 14° E
Cosmos 540 Rocket 3.5 15:44:20 10° SSW 15:49:26 87° WNW 15:54:32 10° NNE
deb Chang Zheng 4 4.0 15:49:23 10° SE 15:53:22 39° ENE 15:57:21 10° N
Cosmos 44 4.0 15:51:56 10° N 15:55:44 26° ENE 15:58:44 13° ESE
Delta 128 4.1 15:49:52 10° WSW 15:56:13 87° SSE 16:00:03 20° ENE
Cosmos 2026 Rocket 4.1 15:50:56 10° N 15:56:48 48° E 16:02:36 10° SSE
Okean O Rocket 2.1 15:53:00 10° SE 15:57:01 35° ENE 16:01:04 10° N
Landsat 5 3.3 15:53:28 10° NNE 15:57:35 82° E 16:01:32 10° S
Cosmos 2195 Rocket 4.4 15:52:49 10° N 15:58:55 64° E 16:05:04 10° SSE
COSMO-SKYMED 1 3.1 15:56:34 10° N 16:00:51 61° WNW 16:05:06 10° SSW
MOS 1-B 4.3 15:57:06 10° SSE 16:02:51 83° ENE 16:08:37 10° NNW
CZ-2C R/B 2.9 15:57:54 10° N 16:03:02 67° WNW 16:08:08 10° SSW
Meteor 1-25 Rocket 4.1 16:02:27 10° N 16:08:01 79° E 16:13:38 10° S
Meteor 2-21 4.5 16:02:48 10° N 16:08:44 55° E 16:14:36 10° SSE
Cosmos 1500 3.6 16:10:21 24° NNE 16:12:01 37° E 16:15:28 10° SSE
Cosmos 1782 4.2 16:16:39 10° SSW 16:20:25 40° W 16:24:12 10° NNW
SWIFT 2.9 16:17:19 10° WSW 16:21:24 48° S 16:22:55 32° ESE
Cosmos 841 Rocket 4.3 16:18:44 10° SSW 16:23:45 50° WNW 16:28:45 10° N
GPS 2-15 Rocket1 4.1 16:21:32 10° SW 16:25:45 35° S 16:27:19 27° SE
Atlas Centaur 2 1.5 16:25:06 10° WNW 16:28:37 58° SSW 16:29:46 38° SE
Meteor 2-15 4.4 16:23:55 10° S 16:29:52 56° E 16:34:06 20° NNE
Cosmos 921 Rocket 4.2 16:26:26 10° SSE 16:28:44 26° SE 16:28:44 26° SE
CZ-4C R/B 4.3 16:27:46 12° N 16:30:31 36° WNW 16:33:35 10° SW
DMSP B5D2-2 3.9 16:25:44 12° NNE 16:30:32 82° ESE 16:35:46 10° S
Cosmos 2082 Rocket 2.8 16:25:25 10° SSW 16:30:59 56° WNW 16:36:33 10° N
Cosmos 1697 Rocket 2.8 16:26:46 10° N 16:32:08 46° ENE 16:34:35 29° ESE
Cosmos 1812 3.5 16:28:56 10° SSW 16:32:40 52° W 16:35:53 13° N
Cosmos 1937 Rocket 3.7 16:28:58 10° N 16:34:05 48° ENE 16:39:09 10° SSE
IRAS Rocket 4.1 16:30:57 16° NNE 16:35:26 84° ESE 16:40:57 10° SSW
Lacrosse 5 3.4 16:31:00 10° NW 16:35:37 36° WSW 16:40:14 10° S
Meteor 2-14 Rocket 4.5 16:30:36 10° N 16:36:40 79° W 16:42:43 10° S
Meteor 2-6 Rocket 4.2 16:32:02 10° S 16:37:56 86° E 16:42:54 15° N
Cosmos 1656 4.1 16:32:44 10° NNW 16:38:14 64° WSW 16:43:47 10° S
Cosmos 1151 Rocket 3.8 16:36:01 10° SSW 16:40:10 50° W 16:43:58 12° N
Meteor 1-10 Rocket 4.2 16:34:42 10° S 16:40:30 62° E 16:42:37 38° NNE
Feng Yun 1-1 Rocket 4.3 16:35:33 10° SSE 16:41:23 69° ENE 16:47:17 10° N
Cosmos 1328 Rocket 3.6 16:37:17 10° S 16:41:42 78° W 16:43:40 33° N
GMS 1 Rocket B 4.4 16:38:11 10° WNW 16:42:11 67° NNE 16:42:11 67° NNE
CZ-2C R/B 2.0 16:40:57 10° SW 16:44:15 42° S 16:44:15 42° S
BREEZE-M DEB (TANK) 4.4 16:34:08 10° NW 16:45:54 41° NNE 16:46:09 41° NNE
USA 229 DEB 4.1 16:40:30 10° NNW 16:47:53 51° ENE 16:50:07 41° ESE
USA 229 4.1 16:40:36 10° NNW 16:47:59 50° ENE 16:50:00 42° E
Cosmos 1900 4.2 16:45:48 10° SSW 16:50:39 81° WNW 16:51:18 66° N
Meteor 2-21 Rocket 4.4 16:46:47 10° N 16:52:51 80° W 16:58:53 10° S
USA 234 4.1 16:47:50 10° SSE 16:54:06 49° SW 17:00:24 10° NW
Aurora 2 Rocket 3.8 16:56:24 10° W 17:03:04 85° N 17:04:57 59° E
Delta 198 4.4 16:58:13 10° W 17:05:09 88° S 17:05:51 74° E
NOSS 3-1 (A) 4.1 17:03:17 10° NNW 17:11:39 83° ENE 17:20:50 10° SSE
H-2A R/B 3.3 17:16:50 41° W 17:16:50 41° W 17:20:47 10° SW
Cosmos 2360 4.4 17:12:54 10° NNW 17:18:12 66° W 17:18:12 66° W
BREEZE M DEB (TANK) 4.1 17:12:23 10° NW 17:20:47 45° NNW 17:20:47 45° NNW
ATLAS 3B CENTAUR R/B 4.5 18:30:13 10° W 18:43:08 54° WNW 18:43:08 54° WNW
